Home > Weather > Hameln > Past weeks

Flag for Germany Past Weather in Hameln, Lower Saxony, Germany — Yesterday and Last 2 Weeks

Now
75 °F

Scattered clouds.


Feels Like: 78 °F
Forecast: 62 / 72 °F
Wind: 15 mph from West

Location: Bueckeburg

Current Time: Jul 27, 2016 at 7:33:04 PM

Latest Report: Jul 27, 2016 at 6:20 PM


Visibility: N/A

Pressure: 29.95 "Hg

Humidity: 47%

Dew Point: 54 °F

Location of HamelnLocation

Past Weather in Hameln — Graph

°F

Hameln Temperature Yesterday

Maximum temperature yesterday: 79 °F (at 4:20 PM)
Minimum temperature yesterday: 64 °F (at 5:20 AM)
Average temperature yesterday: 70 °F

High & Low Weather Summary for the Past Weeks

 TemperatureHumidityPressure
High90 °F (Jul 20, 3:20 PM)100% (Jul 17, 3:20 AM)30.24 "Hg (Jul 17, 3:20 AM)
Low54 °F (Jul 14, 6:20 AM)28% (Jul 17, 4:20 PM)29.86 "Hg (Jul 12, 6:20 PM)
Average69 °F70%30.06 "Hg
* Reported Jul 12 6:20 PM — Jul 27 6:20 PM, Hameln, Weather by CustomWeather, © 2016

Note: Actual official high and low records may vary slightly from our data, if they occured in-between our weather recording intervals... More about our weather records

Advertising

Hameln Weather History for the Previous 24 Hours

Scroll right to see more
 ConditionsComfort  
Time TempWeatherWind HumidityBarometerVisibility
6:20 PM
Wed, Jul 27
75 °FScattered clouds.15 mph47%29.95 "HgN/A
5:20 PM75 °FScattered clouds.16 mph50%29.95 "HgN/A
4:20 PM77 °FBroken clouds.20 mph51%29.95 "HgN/A
3:20 PM75 °FBroken clouds.15 mph50%29.95 "HgN/A
2:20 PM77 °FBroken clouds.12 mph54%29.95 "HgN/A
1:20 PM75 °FScattered clouds.12 mph54%29.98 "HgN/A
12:20 PM73 °FPartly sunny.10 mph65%29.98 "HgN/A
11:20 AM72 °FPartly sunny.9 mph69%30.01 "HgN/A
10:20 AM68 °FPartly sunny.6 mph73%30.01 "HgN/A
9:20 AM66 °FPartly sunny.6 mph83%30.01 "HgN/A
8:20 AM64 °FPartly sunny.3 mph83%30.04 "HgN/A
7:20 AM61 °FPartly sunny.3 mph94%30.04 "HgN/A
6:20 AM61 °FPartly cloudy.3 mph94%30.04 "HgN/A
5:20 AM61 °FPassing clouds.2 mph94%30.04 "HgN/A
4:20 AM63 °FPassing clouds.5 mph88%30.07 "HgN/A
3:20 AM63 °FPassing clouds.3 mph94%30.07 "HgN/A
2:20 AM63 °FPartly cloudy.2 mph94%30.07 "HgN/A
1:20 AM63 °FPassing clouds.2 mph94%30.09 "HgN/A
12:20 AM64 °FLight rain. Passing clouds.2 mph88%30.09 "HgN/A
11:20 PM
Tue, Jul 26
66 °FLight rain. Passing clouds.5 mph83%30.09 "HgN/A
10:20 PM66 °FLight rain. Partly sunny.9 mph78%30.09 "HgN/A
9:20 PM72 °FLight rain. Partly sunny.5 mph57%30.09 "HgN/A
8:20 PM73 °FLight rain. Partly sunny.6 mph47%30.09 "HgN/A
7:20 PM75 °FBroken clouds.3 mph41%30.09 "HgN/A
Weather by CustomWeather, © 2016

See weather overviewHow to use our weather pages